WB4E-13 Weather Reports


time (UTC)temp
C
wind
direction
speed
KPH
gust
KPH
rain 1hr
cm
rain 24hr
cm
rain mn
cm
humidity
%
barometer
mb
20260906100640 23 16 0.0 0.0 0.00 0.00 0.00 85 1008.7
20260906095722 23 16 0.0 0.0 0.00 0.00 0.00 85 1008.6
20260906095640 23 16 0.0 0.0 0.00 0.00 0.00 85 1008.6
20260906094640 23 16 0.0 0.0 0.00 0.00 0.00 85 1008.6
20260906093640 23 16 0.0 0.0 0.00 0.00 0.00 85 1008.7
20260906092712 23 16 0.0 0.0 0.00 0.00 0.00 85 1008.6
20260906092639 23 16 0.0 0.0 0.00 0.00 0.00 85 1008.6
20260906091639 23 16 0.0 0.0 0.00 0.00 0.00 85 1008.7
20260906090639 23 16 0.0 0.0 0.00 0.00 0.00 85 1008.6
20260906085745 23 16 0.0 0.0 0.00 0.00 0.00 85 1008.5
20260906085710 23 16 0.0 0.0 0.00 0.00 0.00 85 1008.5
20260906085638 23 16 0.0 0.0 0.00 0.00 0.00 85 1008.5
20260906084638 23 350 0.0 0.0 0.00 0.00 0.00 86 1008.6
20260906083638 23 73 0.0 0.0 0.00 0.00 0.00 85 1008.5
20260906082638 23 286 0.0 0.0 0.00 0.00 0.00 85 1008.6
20260906081638 23 286 0.0 0.0 0.00 0.00 0.00 85 1008.8
20260906080638 23 286 0.0 0.0 0.00 0.00 0.00 85 1008.7
20260906075638 23 286 0.0 0.0 0.00 0.00 0.00 85 1008.5
20260906074638 23 342 0.0 0.0 0.00 0.00 0.00 85 1008.4
20260906073637 23 342 0.0 0.0 0.00 0.00 0.00 85 1008.3
20260906072637 23 342 0.0 0.0 0.00 0.00 0.00 85 1008.2
20260906071637 23 342 0.0 0.0 0.00 0.00 0.00 85 1008.1
20260906070710 23 342 0.0 0.0 0.00 0.00 0.00 85 1008.1
20260906070637 23 342 0.0 0.0 0.00 0.00 0.00 85 1008.1
20260906065637 23 342 0.0 0.0 0.00 0.00 0.00 85 1008.2
20260906064637 23 342 0.0 0.0 0.00 0.00 0.00 84 1008.1
20260906063636 24 342 0.0 0.0 0.00 0.00 0.00 84 1008.2
20260906062636 24 342 0.0 0.0 0.00 0.00 0.00 84 1008.3
20260906061636 24 342 0.0 0.0 0.00 0.00 0.00 84 1008.2
20260906060636 24 342 0.0 0.0 0.00 0.00 0.00 84 1008.1
20260906055636 24 342 0.0 0.0 0.00 0.00 0.00 84 1008.2
20260906054636 24 342 0.0 0.0 0.00 0.00 0.00 84 1008.6
20260906053641 24 342 0.0 0.0 0.00 0.00 0.00 84 1008.6
20260906052641 24 342 0.0 0.0 0.00 0.00 0.00 84 1008.8
20260906051640 24 342 0.0 0.0 0.00 0.00 0.00 84 1008.8
20260906050641 25 342 0.0 0.0 0.00 0.00 0.00 84 1009.0
20260906045640 25 342 0.0 0.0 0.00 0.00 0.00 83 1008.9
20260906044640 25 342 0.0 0.0 0.00 0.00 0.00 83 1009.1
20260906043640 25 342 0.0 0.0 0.00 0.00 0.00 83 1009.2
20260906042640 25 342 0.0 0.0 0.00 0.00 0.00 83 1009.3
20260906041640 25 342 0.0 0.0 0.00 0.00 0.00 82 1009.1
20260906040640 25 342 0.0 0.0 0.00 0.00 0.00 82 1009.2
20260906035640 25 342 0.0 0.0 0.00 0.05 0.05 82 1009.1
20260906034640 25 342 0.0 0.0 0.00 0.05 0.05 82 1009.0
20260906033640 25 342 0.0 0.0 0.00 0.05 0.05 82 1009.0
20260906032639 25 342 0.0 0.0 0.00 0.05 0.05 82 1009.0
20260906031639 25 342 0.0 0.0 0.00 0.05 0.05 81 1008.9
20260906030639 25 342 0.0 0.0 0.00 0.05 0.05 81 1009.0
20260906025639 25 342 0.0 0.0 0.00 0.05 0.05 81 1008.9
20260906024639 26 342 0.0 0.0 0.00 0.05 0.05 81 1008.7
20260906023639 26 342 0.0 0.0 0.00 0.05 0.05 81 1008.6
20260906022639 26 342 0.0 0.0 0.00 0.05 0.05 81 1008.5
20260906021638 26 342 0.0 0.0 0.00 0.05 0.05 80 1008.6
20260906020717 26 342 0.0 0.0 0.00 0.05 0.05 80 1008.6
20260906020639 26 342 0.0 0.0 0.00 0.05 0.05 80 1008.6
20260906015638 26 342 0.0 0.0 0.00 0.05 0.05 80 1008.4
20260906014638 26 342 0.0 0.0 0.00 0.05 0.05 80 1008.6
20260906013638 26 342 0.0 0.0 0.00 0.05 0.05 79 1008.8
20260906012708 26 342 0.0 0.0 0.00 0.05 0.05 78 1008.7
20260906012638 26 342 0.0 0.0 0.00 0.05 0.05 78 1008.7
20260906011638 26 296 0.0 0.0 0.00 0.05 0.05 78 1008.3
20260906010638 27 296 0.0 0.0 0.00 0.05 0.05 78 1008.1
20260906005637 27 296 0.0 0.0 0.00 0.05 0.05 77 1008.2
20260906004638 27 296 0.0 0.0 0.00 0.05 0.05 77 1008.0
20260906003637 27 296 0.0 0.0 0.00 0.05 0.05 76 1008.3
20260906002709 27 296 0.0 0.0 0.00 0.05 0.05 76 1008.3
20260906002637 27 296 0.0 0.0 0.00 0.05 0.05 76 1008.3
20260906001637 27 286 0.0 0.0 0.00 0.05 0.05 75 1008.1
20260906000637 28 286 0.0 0.0 0.00 0.05 0.05 75 1008.1
20260905235637 28 286 0.0 1.6 0.00 0.05 0.05 74 1008.2
20260905234636 28 312 0.0 1.6 0.00 0.05 0.05 74 1008.1
20260905233636 28 312 1.6 3.2 0.00 0.05 0.05 74 1008.1
20260905232636 28 304 0.0 4.8 0.00 0.05 0.05 74 1008.0
20260905231720 29 298 0.0 0.0 0.00 0.05 0.05 76 1007.9
20260905231641 29 298 0.0 0.0 0.00 0.05 0.05 76 1007.9
20260905230849 29 274 0.0 0.0 0.00 0.05 0.05 75 1007.8
20260905230641 29 274 0.0 0.0 0.00 0.05 0.05 75 1007.8
20260905225639 30 269 0.0 1.6 0.00 0.05 0.05 75 1007.8
20260905224639 30 280 1.6 0.0 0.00 0.05 0.05 76 1007.8
20260905223639 30 276 0.0 1.6 0.00 0.05 0.05 75 1007.5
20260905222639 30 276 0.0 4.8 0.00 0.05 0.05 76 1007.5
20260905221638 30 190 0.0 1.6 0.00 0.05 0.05 76 1007.5
20260905220637 30 355 1.6 3.2 0.00 0.05 0.05 76 1007.5
20260905215810 30 290 0.0 3.2 0.00 0.05 0.05 76 1007.8
20260905215637 30 290 0.0 3.2 0.00 0.05 0.05 76 1007.8
20260905214637 30 295 1.6 1.6 0.00 0.05 0.05 77 1008.0
20260905213637 30 254 0.0 4.8 0.00 0.05 0.05 77 1008.1
20260905212637 30 103 0.0 0.0 0.00 0.05 0.05 76 1008.0
20260905211637 30 188 0.0 4.8 0.00 0.05 0.05 77 1008.0
20260905210636 29 305 0.0 1.6 0.00 0.05 0.05 78 1008.0
20260905205636 29 198 0.0 3.2 0.00 0.05 0.05 77 1008.1
20260905204640 29 259 0.0 1.6 0.00 0.05 0.05 78 1008.2
20260905203640 28 30 1.6 3.2 0.00 0.05 0.05 79 1008.2
20260905202640 28 211 0.0 0.0 0.00 0.05 0.05 80 1008.5
20260905201640 28 211 0.0 0.0 0.00 0.05 0.05 81 1008.7
20260905200639 28 211 0.0 1.6 0.00 0.05 0.05 82 1008.6
20260905195639 27 211 0.0 1.6 0.00 0.05 0.05 83 1008.7
20260905194639 27 211 0.0 3.2 0.00 0.05 0.05 83 1009.0
20260905193639 27 265 0.0 1.6 0.00 0.05 0.05 83 1009.1
20260905192638 27 265 0.0 0.0 0.00 0.05 0.05 82 1009.1
20260905191638 27 265 0.0 0.0 0.00 0.05 0.05 82 1009.4
20260905190638 27 265 0.0 6.4 0.00 0.05 0.05 81 1009.6
20260905185638 27 261 3.2 4.8 0.03 0.05 0.05 81 1009.5
20260905184637 27 274 3.2 6.4 0.05 0.05 0.05 80 1009.9
20260905183637 28 255 0.0 4.8 0.05 0.05 0.05 80 1009.3
20260905182637 28 271 1.6 1.6 0.05 0.05 0.05 79 1009.4
20260905180637 30 283 3.2 4.8 0.05 0.05 0.05 73 1009.6
20260905175637 32 245 1.6 17.7 0.03 0.03 0.03 68 1009.8
20260905174748 33 232 0.0 12.9 0.00 0.00 0.00 62 1009.8
20260905174708 33 232 0.0 12.9 0.00 0.00 0.00 62 1009.8
20260905174636 33 232 0.0 12.9 0.00 0.00 0.00 62 1009.8
20260905173636 33 279 0.0 3.2 0.00 0.00 0.00 58 1010.0
20260905172636 33 252 1.6 9.7 0.00 0.00 0.00 56 1010.0
20260905171641 33 244 1.6 3.2 0.00 0.00 0.00 58 1009.6
20260905171021 33 232 0.0 4.8 0.00 0.00 0.00 58 1009.8
20260905170641 33 232 0.0 4.8 0.00 0.00 0.00 58 1009.8
20260905165640 33 355 0.0 6.4 0.00 0.00 0.00 61 1009.9
20260905164640 32 32 0.0 3.2 0.00 0.00 0.00 64 1010.3
20260905163640 32 45 4.8 1.6 0.00 0.00 0.00 64 1010.3
20260905162639 32 210 1.6 1.6 0.00 0.00 0.00 65 1010.4
20260905161639 31 222 0.0 1.6 0.00 0.00 0.00 68 1010.4
20260905160712 31 222 1.6 3.2 0.00 0.00 0.00 68 1010.4
20260905160638 31 222 1.6 3.2 0.00 0.00 0.00 68 1010.4
20260905155637 31 229 0.0 6.4 0.00 0.00 0.00 69 1010.4
20260905154637 30 271 6.4 0.0 0.00 0.00 0.00 69 1010.5
20260905153712 30 281 0.0 0.0 0.00 0.00 0.00 72 1010.5
20260905153637 30 281 0.0 0.0 0.00 0.00 0.00 72 1010.5
20260905152637 30 122 0.0 0.0 0.00 0.00 0.00 73 1010.5
20260905151636 29 109 0.0 0.0 0.00 0.00 0.00 74 1010.7
20260905150636 29 229 0.0 0.0 0.00 0.00 0.00 75 1010.7
20260905145636 29 229 0.0 0.0 0.00 0.00 0.00 75 1010.8
20260905144713 28 136 0.0 0.0 0.00 0.00 0.00 76 1010.8
20260905144641 28 136 0.0 0.0 0.00 0.00 0.00 76 1010.8
20260905143641 28 171 0.0 0.0 0.00 0.00 0.00 78 1010.9
20260905142641 27 247 0.0 0.0 0.00 0.00 0.00 79 1010.9
20260905141733 27 296 0.0 0.0 0.00 0.00 0.00 80 1011.0
20260905141640 27 296 0.0 0.0 0.00 0.00 0.00 80 1011.0
20260905140640 27 296 0.0 0.0 0.00 0.00 0.00 80 1011.1
20260905135639 27 325 0.0 0.0 0.00 0.00 0.00 81 1011.1
20260905134639 26 325 0.0 0.0 0.00 0.00 0.00 81 1011.2
20260905133710 26 325 0.0 0.0 0.00 0.00 0.00 82 1011.4
20260905133639 26 325 0.0 0.0 0.00 0.00 0.00 82 1011.4
20260905132638 26 273 0.0 0.0 0.00 0.00 0.00 82 1011.4
20260905131638 25 286 0.0 0.0 0.00 0.00 0.00 83 1011.5
20260905130638 25 292 0.0 0.0 0.00 0.00 0.00 84 1011.6
20260905125638 25 292 0.0 0.0 0.00 0.00 0.00 85 1011.6
20260905124638 24 292 0.0 0.0 0.00 0.00 0.00 86 1011.5
20260905123637 24 292 0.0 0.0 0.00 0.00 0.00 86 1011.5
20260905122637 24 292 0.0 0.0 0.00 0.00 0.00 86 1011.4
20260905121637 23 292 0.0 0.0 0.00 0.00 0.00 86 1011.4
20260905120637 23 292 0.0 0.0 0.00 0.00 0.00 85 1011.3
20260905115637 23 292 0.0 0.0 0.00 0.00 0.00 85 1011.1
20260905114637 23 292 0.0 0.0 0.00 0.00 0.00 85 1011.0
20260905113726 23 292 0.0 0.0 0.00 0.00 0.00 85 1010.8
20260905113637 23 292 0.0 0.0 0.00 0.00 0.00 85 1010.8
20260905112709 23 292 0.0 0.0 0.00 0.00 0.00 85 1010.7
20260905112636 23 292 0.0 0.0 0.00 0.00 0.00 85 1010.7
20260905111733 23 292 0.0 0.0 0.00 0.00 0.00 85 1010.6
20260905111636 23 292 0.0 0.0 0.00 0.00 0.00 85 1010.6
20260905110712 23 292 0.0 0.0 0.00 0.00 0.00 85 1010.4
20260905110640 23 292 0.0 0.0 0.00 0.00 0.00 85 1010.4
20260905105718 23 292 0.0 0.0 0.00 0.00 0.00 84 1010.3
20260905105640 23 292 0.0 0.0 0.00 0.00 0.00 84 1010.3
20260905104715 23 292 0.0 0.0 0.00 0.00 0.00 84 1010.3
20260905104640 23 292 0.0 0.0 0.00 0.00 0.00 84 1010.3
20260905103640 24 292 0.0 0.0 0.00 0.00 0.00 84 1010.1
20260905102639 24 292 0.0 0.0 0.00 0.00 0.00 84 1010.0
20260905101712 24 292 0.0 0.0 0.00 0.00 0.00 84 1009.8
20260905101639 24 292 0.0 0.0 0.00 0.00 0.00 84 1009.8